Stations météo

Publicité
Calvi, France (7754): Température de l'air & dewpoint: 17.04.2017 23:00:00 - 23.04.2017 23:00:00 (CEST)Calvi, France (7754): Température de l'air 5cm: 17.04.2017 23:00:00 - 23.04.2017 23:00:00 (CEST)Calvi, France (7754): Vitesse du vent & gusts: 17.04.2017 23:00:00 - 23.04.2017 23:00:00 (CEST)Calvi, France (7754): Direction du vent: 17.04.2017 23:00:00 - 23.04.2017 23:00:00 (CEST)Calvi, France (7754): reduced air pressure: 17.04.2017 23:00:00 - 23.04.2017 23:00:00 (CEST)Calvi, France (7754): visibility: 17.04.2017 23:00:00 - 23.04.2017 23:00:00 (CEST)Calvi, France (7754): Ensoleillement: 17.04.2017 23:00:00 - 23.04.2017 23:00:00 (CEST)Calvi, France (7754): Quantités de précipitations: 17.04.2017 23:00:00 - 23.04.2017 23:00:00 (CEST)
Date & Time tt [°C] td [°C] tt 5cm [°C] ff [km/h] ff [knt] fx [km/h] fx [knt] dd ppp [hPa] vv [km] sd [min] rr [mm]
23.04.2017 23:00:00 11,0 7,5 10,3 11 6 14 7 S 1019,5 33 0 0,0
23.04.2017 22:00:00 11,5 7,2 10,8 7 4 11 6 S 1019,2 35 0 0,0
23.04.2017 21:00:00 13,4 7,6 12,7 5 3 14 8 SSE 1018,6 41 0 0,0
23.04.2017 20:00:00 15,9 9,1 15,7 6 3 21 12 NNW 1017,8 48 31 0,0
23.04.2017 19:00:00 17,5 8,9 20,0 12 6 25 13 N 1017,6 30 60 0,0
23.04.2017 18:00:00 18,6 8,8 22,5 16 8 27 15 N 1017,2 40 60 0,0
23.04.2017 17:00:00 20,2 9,1 25,3 19 10 28 15 N 1016,9 40 60 0,0
23.04.2017 16:00:00 21,2 8,1 27,4 6 4 22 12 SSE 1017,2 40 60 0,0
23.04.2017 15:00:00 21,3 7,1 25,5 14 8 23 13 S 1017,4 56 60 0,0
23.04.2017 14:00:00 21,3 6,4 24,7 15 8 26 14 SSW 1017,5 50 60 0,0
23.04.2017 13:00:00 20,9 5,3 25,7 10 5 20 11 S 1017,6 50 60 0,0
23.04.2017 12:00:00 20,1 2,4 23,7 5 3 22 12 NE 1018,0 50 60 0,0
23.04.2017 11:00:00 18,8 -0,6 20,7 9 5 29 15 N 1018,4 50 60 0,0
23.04.2017 10:00:00 17,9 -1,4 19,1 14 7 22 12 N 1018,4 50 60 0,0
23.04.2017 09:00:00 16,7 -5,8 15,6 4 2 10 6 E 1018,1 50 60 0,0
23.04.2017 08:00:00 13,7 -3,1 11,5 4 2 16 9 N 1017,9 50 58 0,0
23.04.2017 07:00:00 11,7 -2,9 10,6 8 4 37 20 S 1017,4 50 3 0,0
23.04.2017 06:00:00 12,0 -0,2 10,8 24 13 41 22 S 1017,3 60 0 0,0
23.04.2017 05:00:00 12,3 -0,3 10,7 18 10 32 17 S 1017,8 60 0 0,0
23.04.2017 04:00:00 12,8 -3,5 12,2 18 10 30 16 SSW 1018,4 60 0 0,0
23.04.2017 03:00:00 13,6 -5,6 12,9 19 11 30 16 S 1018,4 60 0 0,0
23.04.2017 02:00:00 14,8 -9,3 13,9 22 12 36 19 S 1019,1 60 0 0,0
23.04.2017 01:00:00 14,9 -12,4 13,4 17 9 35 19 SSW 1019,6 60 0 0,0
23.04.2017 00:00:00 14,0 -8,0 13,3 20 11 35 19 S 1020,1 60 0 0,0
22.04.2017 23:00:00 14,3 -6,6 12,9 21 11 35 19 S 1020,6 60 0 0,0
22.04.2017 22:00:00 13,6 -6,6 12,4 16 9 34 18 S 1021,0 60 0 0,0
22.04.2017 21:00:00 14,5 -8,2 13,4 10 6 28 15 SSE 1020,9 60 0 0,0
22.04.2017 20:00:00 15,0 -1,6 14,6 9 5 34 19 SW 1020,6 60 29 0,0
22.04.2017 19:00:00 16,6 1,5 18,0 21 12 41 22 SW 1020,4 50 60 0,0
22.04.2017 18:00:00 17,8 1,3 20,5 22 12 41 22 SW 1020,5 50 60 0,0
22.04.2017 17:00:00 17,8 3,3 21,4 25 13 49 26 WSW 1021,1 50 60 0,0
22.04.2017 16:00:00 18,6 3,2 23,0 23 13 44 24 SW 1021,8 50 60 0,0
22.04.2017 15:00:00 19,0 -0,4 22,9 26 14 42 23 SW 1022,7 50 60 0,0
22.04.2017 14:00:00 19,6 -1,0 22,3 23 12 39 21 WSW 1023,4 50 60 0,0
22.04.2017 13:00:00 18,8 -4,0 22,0 22 12 47 25 WSW 1024,2 50 60 0,0
22.04.2017 12:00:00 18,6 -1,8 20,7 19 10 39 21 WSW 1024,8 50 60 0,0
22.04.2017 11:00:00 17,6 -1,1 18,3 19 11 38 21 SW 1025,4 50 60 0,0
22.04.2017 10:00:00 16,7 2,3 16,4 18 10 42 23 SSW 1025,8 50 60 0,0
22.04.2017 09:00:00 15,1 4,2 14,3 21 11 36 19 SSW 1026,0 50 60 0,0
22.04.2017 08:00:00 13,6 3,9 11,8 17 9 31 17 SSW 1026,2 50 60 0,0
22.04.2017 07:00:00 12,0 3,5 10,8 18 10 32 17 S 1026,2 50 1 0,0
22.04.2017 06:00:00 11,4 2,7 9,9 16 8 31 17 S 1026,1 60 0 0,0
22.04.2017 05:00:00 11,3 1,2 9,6 22 12 33 18 SSE 1026,4 60 0 0,0
22.04.2017 04:00:00 10,6 0,6 6,8 15 8 22 12 SSE 1026,5 60 0 0,0
22.04.2017 03:00:00 7,1 -3,5 6,7 17 9 26 14 S 1027,0 60 0 0,0
22.04.2017 02:00:00 8,2 -4,0 5,7 18 10 24 13 SSE 1027,5 60 0 0,0
22.04.2017 01:00:00 6,7 -2,0 5,7 8 5 18 10 SSE 1028,0 60 0 0,0
22.04.2017 00:00:00 7,1 -0,1 5,7 10 5 14 8 S 1028,3 60 0 0,0
21.04.2017 23:00:00 7,8 1,2 7,1 6 4 21 11 SSW 1028,3 60 0 0,0
21.04.2017 22:00:00 8,2 1,6 7,8 11 6 20 11 S 1028,5 60 0 0,0
21.04.2017 21:00:00 9,6 2,4 9,4 13 7 16 9 S 1028,1 60 0 0,0
21.04.2017 20:00:00 13,0 1,9 12,5 3 2 19 11 SSW 1027,8 60 26 0,0
21.04.2017 19:00:00 15,3 3,4 17,5 10 6 26 14 WNW 1027,8 50 60 0,0
21.04.2017 18:00:00 16,2 2,6 20,0 10 5 27 15 NW 1027,5 50 60 0,0
21.04.2017 17:00:00 16,3 1,6 22,0 12 6 26 14 WNW 1027,6 50 60 0,0
21.04.2017 16:00:00 16,6 1,1 22,4 16 9 28 15 N 1028,2 50 60 0,0
21.04.2017 15:00:00 16,5 0,6 21,3 14 8 29 15 NNW 1028,7 50 60 0,0
21.04.2017 14:00:00 16,1 -1,1 20,0 19 10 31 17 N 1028,8 50 60 0,0
21.04.2017 13:00:00 15,9 0,8 20,7 18 10 29 15 N 1028,8 40 60 0,0
21.04.2017 12:00:00 15,9 -1,2 19,6 13 7 23 13 NNW 1028,9 60 60 0,0
21.04.2017 11:00:00 15,2 1,0 17,2 15 8 25 14 N 1028,8 40 60 0,0
21.04.2017 10:00:00 14,9 -4,0 16,9 11 6 16 9 N 1028,4 40 60 0,0
21.04.2017 09:00:00 14,1 -3,7 10,4 0 0 9 5 N 1028,2 40 60 0,0
21.04.2017 08:00:00 8,5 -2,2 4,2 6 4 12 7 S 1028,0 40 60 0,0
21.04.2017 07:00:00 4,9 -2,9 2,1 10 5 14 8 SSW 1027,8 40 0 0,0
21.04.2017 06:00:00 3,3 -2,0 2,6 9 5 14 8 S 1027,5 60 0 0,0
21.04.2017 05:00:00 4,7 -2,0 3,8 6 3 16 9 S 1027,5 60 0 0,0
21.04.2017 04:00:00 5,3 -1,0 3,4 9 5 13 7 SSW 1027,5 60 0 0,0
21.04.2017 03:00:00 5,6 -0,9 3,9 10 6 14 8 SSW 1027,3 60 0 0,0
21.04.2017 02:00:00 5,1 -1,4 4,4 4 2 15 8 SSW 1027,3 60 0 0,0
21.04.2017 01:00:00 5,2 -1,7 4,6 10 5 17 9 S 1027,3 60 0 0,0
21.04.2017 00:00:00 6,2 -1,5 4,6 11 6 16 8 SSW 1027,2 60 0 0,0
20.04.2017 23:00:00 5,9 -1,5 5,3 7 4 13 7 SSW 1026,8 60 0 0,0
20.04.2017 22:00:00 6,4 -1,3 5,8 8 4 16 9 SSW 1026,0 60 0 0,0
20.04.2017 21:00:00 7,8 -0,9 7,0 10 5 16 9 SSW 1025,0 60 0 0,0
20.04.2017 20:00:00 11,3 -1,2 10,0 3 2 16 9 WSW 1024,0 60 23 0,0
20.04.2017 19:00:00 14,6 -3,3 16,7 10 5 27 15 N 1023,7 50 60 0,0
20.04.2017 18:00:00 14,8 -3,6 18,5 16 9 34 18 NNW 1023,7 50 60 0,0
20.04.2017 17:00:00 15,4 -4,0 20,1 20 11 36 20 N 1023,3 40 60 0,0
20.04.2017 16:00:00 16,4 -5,4 21,4 22 12 43 23 N 1023,0 10 60 0,0
20.04.2017 15:00:00 16,3 -5,5 20,6 29 15 45 24 N 1023,2 40 60 0,0
20.04.2017 14:00:00 16,7 -5,2 17,2 29 16 48 26 N 1023,5 53 53 0,0
20.04.2017 13:00:00 16,8 -1,4 20,4 23 12 49 27 NNE 1023,3 18 60 0,0
20.04.2017 12:00:00 15,8 -2,7 18,2 27 14 47 25 NNE 1023,5 35 60 0,0
20.04.2017 11:00:00 16,2 -5,6 18,2 21 11 32 17 NNE 1023,1 25 60 0,0
20.04.2017 10:00:00 15,0 -2,9 13,4 3 2 13 7 E 1022,9 25 60 0,0
20.04.2017 09:00:00 12,2 1,2 11,0 10 5 14 7 SSE 1022,8 18 51 0,0
20.04.2017 08:00:00 10,4 -0,7 8,6 3 2 17 9 SW 1022,4 25 56 0,0
20.04.2017 07:00:00 8,9 -0,4 7,7 16 9 55 30 SSE 1021,6 20 0 0,0
20.04.2017 06:00:00 9,9 -0,9 6,6 26 14 40 21 S 1021,6 60 0 0,4
20.04.2017 05:00:00 10,1 -0,4 8,6 6 3 37 20 W 1021,1 23 0 0,2
20.04.2017 04:00:00 8,7 -0,9 8,6 3 2 17 9 SW 1021,1 60 0 0,0
20.04.2017 03:00:00 10,1 -3,6 8,4 8 5 13 7 S 1020,9 60 0 0,0
20.04.2017 02:00:00 8,8 -2,8 7,9 6 4 15 8 SSW 1021,0 60 0 0,0
20.04.2017 01:00:00 8,2 -3,7 7,0 8 4 16 9 SSW 1021,3 60 0 0,0
20.04.2017 00:00:00 7,2 -3,7 6,6 9 5 12 7 SSW 1021,3 60 0 0,0
19.04.2017 23:00:00 7,3 -3,6 6,0 7 4 13 7 S 1020,9 60 0 0,0
19.04.2017 22:00:00 6,8 -3,2 6,6 8 5 16 9 SSW 1020,5 60 0 0,0
19.04.2017 21:00:00 7,6 -3,3 7,4 11 6 16 8 S 1019,9 60 0 0,0
19.04.2017 20:00:00 11,5 -4,7 10,7 4 2 23 12 E 1019,1 60 19 0,0
19.04.2017 19:00:00 14,1 -6,8 16,3 16 9 29 16 N 1018,4 50 60 0,0
19.04.2017 18:00:00 14,9 -5,5 18,5 16 9 34 19 NNW 1017,8 50 60 0,0
19.04.2017 17:00:00 16,0 -4,6 21,1 10 6 29 16 N 1017,6 50 60 0,0
19.04.2017 16:00:00 15,6 -6,7 21,2 18 10 36 19 N 1017,9 50 60 0,0
19.04.2017 15:00:00 15,4 -6,2 20,1 21 12 32 18 N 1018,0 50 60 0,0
19.04.2017 14:00:00 15,4 -3,5 18,9 19 10 37 20 N 1018,0 50 60 0,0
19.04.2017 13:00:00 15,9 -2,6 19,9 19 10 39 21 N 1018,0 50 60 0,0
19.04.2017 12:00:00 14,7 -2,7 18,9 17 9 32 17 N 1018,2 50 60 0,0
19.04.2017 11:00:00 14,7 -3,6 16,7 17 9 35 19 N 1018,0 50 60 0,0
19.04.2017 10:00:00 14,4 -3,4 14,4 19 10 32 17 N 1017,6 50 56 0,0
19.04.2017 09:00:00 13,9 -0,6 11,7 12 6 21 11 NNE 1017,3 41 60 0,0
19.04.2017 08:00:00 10,7 1,2 8,6 5 3 11 6 NE 1017,2 40 21 0,0
19.04.2017 07:00:00 9,6 0,7 8,7 7 4 14 8 NNE 1016,7 35 0 0,0
19.04.2017 06:00:00 11,1 -0,1 9,9 13 7 20 11 NNE 1015,8 60 0 0,0
19.04.2017 05:00:00 11,3 0,7 10,6 10 6 18 10 NNE 1015,5 60 0 0,0
19.04.2017 04:00:00 11,7 0,4 11,2 10 5 19 10 NE 1015,5 60 0 0,0
19.04.2017 03:00:00 12,6 -0,7 12,0 14 8 33 18 NE 1015,4 60 0 0,0
19.04.2017 02:00:00 12,7 0,1 12,1 16 9 29 15 NE 1015,8 60 0 0,0
19.04.2017 01:00:00 13,0 0,0 12,4 15 8 32 17 NE 1015,2 10 0 0,0
19.04.2017 00:00:00 13,5 -0,6 12,3 19 10 35 19 ENE 1014,6 60 0 0,0
18.04.2017 23:00:00 12,9 1,2 10,3 14 8 46 25 NE 1013,9 60 0 0,0
18.04.2017 22:00:00 11,2 3,7 10,1 21 12 44 24 E 1013,5 60 0 0,0
18.04.2017 21:00:00 11,3 8,2 10,5 27 15 68 37 NE 1012,3 7 0 1,8
18.04.2017 20:00:00 16,0 8,2 16,3 4 2 25 14 NW 1009,2 58 0 0,0
18.04.2017 19:00:00 16,7 6,8 17,7 15 8 24 13 N 1008,6 30 46 0,0
18.04.2017 18:00:00 18,9 6,7 22,5 12 6 31 17 SW 1007,7 40 60 0,0
18.04.2017 17:00:00 18,3 6,8 22,5 18 10 35 19 WSW 1007,7 40 60 0,0
18.04.2017 16:00:00 18,4 6,9 23,3 20 11 52 28 WSW 1007,3 30 60 0,0
18.04.2017 15:00:00 19,1 6,9 23,0 27 15 50 27 WSW 1006,8 30 60 0,0
18.04.2017 14:00:00 19,8 6,9 22,0 22 12 48 26 WSW 1006,6 25 60 0,0
18.04.2017 13:00:00 19,7 9,6 22,8 24 13 46 25 WSW 1007,1 20 60 0,0
18.04.2017 12:00:00 19,1 9,0 21,8 29 16 48 26 SW 1007,6 26 60 0,0
18.04.2017 11:00:00 19,0 10,0 20,0 27 14 42 23 SW 1007,9 25 60 0,0
18.04.2017 10:00:00 18,6 8,3 19,6 22 12 40 22 WSW 1007,8 25 60 0,0
18.04.2017 09:00:00 18,5 7,6 17,0 11 6 26 14 WSW 1008,1 40 60 0,0
18.04.2017 08:00:00 15,8 5,4 15,1 10 5 26 14 N 1008,0 57 55 0,0
18.04.2017 07:00:00 15,8 4,2 14,3 13 7 25 14 SSW 1007,7 40 0 0,0
18.04.2017 06:00:00 15,4 3,5 14,6 16 9 39 21 SSW 1007,9 60 0 0,0
18.04.2017 05:00:00 16,0 3,1 14,4 17 9 32 17 SSW 1008,4 60 0 0,0
18.04.2017 04:00:00 15,6 5,8 14,2 19 10 32 18 SSW 1009,2 60 0 0,0
18.04.2017 03:00:00 15,4 6,7 14,7 21 11 40 21 SSW 1010,5 55 0 0,0
18.04.2017 02:00:00 15,9 5,8 15,1 26 14 39 21 SSW 1010,9 60 0 0,0
18.04.2017 01:00:00 16,0 5,0 14,0 16 9 36 19 S 1011,1 60 0 0,0
18.04.2017 00:00:00 14,7 9,1 13,9 14 8 27 15 SE 1011,8 20 0 0,0
17.04.2017 23:00:00 15,5 9,6 15,0 19 10 27 14 SSE 1012,4 19 0 0,0

tt = Température de l'air
td = dewpoint
tt 5cm = Température de l'air 5cm
ff = Vitesse du vent
fx = gusts
dd = Direction du vent
ppp = reduced air pressure
vv = visibility
sd = Ensoleillement
rr = Quantités de précipitations

stations d'obs. à proximité